When you browse on this site, cookies collect data to enhance your experience and personalize the content and advertising you see.
Visit our Privacy Policy to learn more. By continuing to use the site, you agree to this use of cookies and data.
  • In United Kingdom
  • List of Countries
  • For 7 days
  • Water Temperature
  • Weather Map
  • Weather Widgets
  • user-avatar
    Login

    Hourly Weather Tata

    Today, 15 September, Sunday

    Time Temperature Precipitation Wind Pressure Humidity
    00:00 +13°C° 0 mm 1 mps 760 mmHg 64%
    01:00 +13°C° 0 mm 1 mps 760 mmHg 66%
    02:00 +13°C° 0 mm 1 mps 760 mmHg 67%
    03:00 +12°C° 0 mm 1 mps 759 mmHg 68%
    04:00 +12°C° 0 mm 1 mps 759 mmHg 69%
    05:00 +13°C° 0 mm 1 mps 759 mmHg 66%
    06:00 +14°C° 0 mm 1 mps 759 mmHg 64%
    07:00 +14°C° 0 mm 1 mps 759 mmHg 62%
    08:00 +18°C° 0 mm 1 mps 759 mmHg 56%
    09:00 +19°C° 0 mm 2 mps 759 mmHg 50%
    10:00 +21°C° 0 mm 2 mps 758 mmHg 43%
    11:00 +23°C° 0 mm 2 mps 758 mmHg 42%
    12:00 +24°C° 0 mm 2 mps 757 mmHg 41%
    13:00 +25°C° 0 mm 2 mps 757 mmHg 40%
    14:00 +26°C° 0 mm 2 mps 756 mmHg 40%
    15:00 +26°C° 0 mm 2 mps 756 mmHg 41%
    16:00 +27°C° 0 mm 2 mps 755 mmHg 41%
    17:00 +24°C° 0 mm 2 mps 755 mmHg 47%
    18:00 +21°C° 0 mm 2 mps 755 mmHg 53%
    19:00 +19°C° 0 mm 2 mps 754 mmHg 60%
    20:00 +20°C° 0 mm 1 mps 754 mmHg 63%
    21:00 +19°C° 0 mm 1 mps 754 mmHg 65%
    22:00 +19°C° 0 mm 1 mps 754 mmHg 68%
    23:00 +18°C° 0 mm 1 mps 754 mmHg 70%

    Tomorrow, 16 September, Monday

    Time Temperature Precipitation Wind Pressure Humidity
    00:00 +18°C° 0 mm 1 mps 754 mmHg 73%
    01:00 +16°C° 0 mm 1 mps 754 mmHg 75%
    02:00 +16°C° 0 mm 1 mps 753 mmHg 78%
    03:00 +16°C° 0 mm 1 mps 753 mmHg 80%
    04:00 +15°C° 0 mm 1 mps 753 mmHg 82%
    05:00 +16°C° 0 mm 1 mps 752 mmHg 81%
    06:00 +18°C° 0 mm 1 mps 752 mmHg 80%
    07:00 +18°C° 0 mm 1 mps 752 mmHg 78%
    08:00 +21°C° 0 mm 1 mps 752 mmHg 71%
    09:00 +23°C° 0 mm 2 mps 752 mmHg 64%
    10:00 +25°C° 0 mm 2 mps 752 mmHg 57%
    11:00 +26°C° 0 mm 2 mps 752 mmHg 53%
    12:00 +27°C° 0 mm 3 mps 751 mmHg 48%
    13:00 +28°C° 0 mm 3 mps 751 mmHg 44%
    14:00 +28°C° 0 mm 3 mps 750 mmHg 45%
    15:00 +28°C° 0 mm 3 mps 750 mmHg 47%
    16:00 +28°C° 0 mm 3 mps 749 mmHg 48%
    17:00 +26°C° 0 mm 2 mps 749 mmHg 55%
    18:00 +24°C° 0 mm 1 mps 749 mmHg 61%
    19:00 +21°C° 0 mm 0 mps 749 mmHg 67%
    20:00 +20°C° 0.2 mm 0 mps 749 mmHg 71%
    21:00 +22°C° 0.2 mm 1 mps 749 mmHg 74%
    22:00 +21°C° 0.2 mm 1 mps 749 mmHg 77%
    23:00 +21°C° 0 mm 1 mps 749 mmHg 78%

    Day after tomorrow, 17 September, Tuesday

    Time Temperature Precipitation Wind Pressure Humidity
    00:00 +20°C° 0 mm 1 mps 749 mmHg 78%
    01:00 +19°C° 0 mm 2 mps 749 mmHg 78%
    02:00 +18°C° 0 mm 2 mps 749 mmHg 78%
    03:00 +17°C° 0 mm 2 mps 748 mmHg 78%
    04:00 +17°C° 0 mm 2 mps 748 mmHg 78%
    05:00 +17°C° 0 mm 3 mps 748 mmHg 77%
    06:00 +17°C° 0 mm 3 mps 749 mmHg 75%
    07:00 +18°C° 0 mm 4 mps 749 mmHg 74%
    08:00 +19°C° 0 mm 4 mps 749 mmHg 69%
    09:00 +20°C° 0 mm 5 mps 749 mmHg 64%
    10:00 +22°C° 0 mm 6 mps 750 mmHg 58%
    11:00 +22°C° 0 mm 6 mps 750 mmHg 55%
    12:00 +23°C° 0 mm 6 mps 749 mmHg 52%
    13:00 +23°C° 0 mm 6 mps 749 mmHg 49%
    14:00 +23°C° 0 mm 6 mps 749 mmHg 49%
    15:00 +22°C° 0 mm 6 mps 748 mmHg 49%
    16:00 +22°C° 0 mm 6 mps 748 mmHg 50%
    17:00 +20°C° 0 mm 5 mps 748 mmHg 54%
    18:00 +19°C° 0 mm 4 mps 749 mmHg 59%
    19:00 +17°C° 0 mm 3 mps 749 mmHg 63%
    20:00 +16°C° 0 mm 3 mps 749 mmHg 61%
    21:00 +16°C° 0 mm 3 mps 750 mmHg 60%
    22:00 +14°C° 0 mm 4 mps 750 mmHg 58%
    23:00 +13°C° 0 mm 4 mps 750 mmHg 60%

    18 September, Wednesday

    Time Temperature Precipitation Wind Pressure Humidity
    00:00 +12°C° 0 mm 4 mps 751 mmHg 61%
    01:00 +11°C° 0 mm 4 mps 751 mmHg 63%
    02:00 +11°C° 0 mm 4 mps 751 mmHg 64%
    03:00 +10°C° 0 mm 4 mps 752 mmHg 65%
    04:00 +10°C° 0 mm 4 mps 752 mmHg 66%
    05:00 +10°C° 0 mm 4 mps 752 mmHg 64%
    06:00 +9°C° 0 mm 5 mps 753 mmHg 62%
    07:00 +9°C° 0 mm 5 mps 753 mmHg 61%
    08:00 +12°C° 0 mm 5 mps 754 mmHg 55%
    09:00 +13°C° 0 mm 5 mps 754 mmHg 49%
    10:00 +14°C° 0 mm 5 mps 754 mmHg 43%
    11:00 +15°C° 0 mm 5 mps 754 mmHg 39%
    12:00 +16°C° 0 mm 5 mps 754 mmHg 35%
    13:00 +17°C° 0 mm 5 mps 753 mmHg 32%
    14:00 +18°C° 0 mm 4 mps 753 mmHg 32%
    15:00 +18°C° 0 mm 4 mps 753 mmHg 32%
    16:00 +17°C° 0 mm 4 mps 753 mmHg 32%
    17:00 +16°C° 0 mm 3 mps 753 mmHg 36%
    18:00 +14°C° 0 mm 2 mps 753 mmHg 41%
    19:00 +12°C° 0 mm 1 mps 753 mmHg 45%
    20:00 +11°C° 0 mm 1 mps 754 mmHg 47%
    21:00 +11°C° 0 mm 1 mps 754 mmHg 49%
    22:00 +10°C° 0 mm 1 mps 754 mmHg 52%
    23:00 +10°C° 0 mm 1 mps 754 mmHg 54%

    19 September, Thursday

    Time Temperature Precipitation Wind Pressure Humidity
    00:00 +9°C° 0 mm 1 mps 754 mmHg 56%
    01:00 +9°C° 0 mm 1 mps 754 mmHg 59%
    02:00 +8°C° 0 mm 1 mps 754 mmHg 61%
    03:00 +8°C° 0 mm 1 mps 754 mmHg 64%
    04:00 +8°C° 0 mm 1 mps 754 mmHg 66%
    05:00 +7°C° 0 mm 2 mps 754 mmHg 65%
    06:00 +8°C° 0 mm 2 mps 754 mmHg 64%
    07:00 +9°C° 0 mm 2 mps 754 mmHg 63%
    08:00 +11°C° 0 mm 3 mps 754 mmHg 56%
    09:00 +13°C° 0 mm 4 mps 755 mmHg 50%
    10:00 +15°C° 0 mm 5 mps 755 mmHg 43%
    11:00 +15°C° 0 mm 5 mps 755 mmHg 41%
    12:00 +16°C° 0 mm 5 mps 754 mmHg 39%
    13:00 +17°C° 0 mm 5 mps 754 mmHg 37%
    14:00 +16°C° 0 mm 5 mps 754 mmHg 38%
    15:00 +16°C° 0 mm 5 mps 754 mmHg 38%
    16:00 +16°C° 0 mm 6 mps 754 mmHg 39%
    17:00 +14°C° 0 mm 5 mps 755 mmHg 42%
    18:00 +13°C° 0 mm 4 mps 755 mmHg 45%
    19:00 +11°C° 0 mm 3 mps 755 mmHg 49%
    20:00 +10°C° 0 mm 3 mps 756 mmHg 54%
    21:00 +9°C° 0 mm 3 mps 756 mmHg 59%
    22:00 +8°C° 0 mm 3 mps 756 mmHg 64%
    23:00 +8°C° 0 mm 3 mps 756 mmHg 67%

    20 September, Friday

    Time Temperature Precipitation Wind Pressure Humidity
    00:00 +7°C° 0 mm 3 mps 756 mmHg 70%
    01:00 +7°C° 0 mm 3 mps 756 mmHg 73%
    02:00 +7°C° 0 mm 3 mps 756 mmHg 76%
    03:00 +5°C° 0 mm 3 mps 757 mmHg 78%
    04:00 +5°C° 0 mm 3 mps 757 mmHg 81%
    05:00 +6°C° 0 mm 4 mps 757 mmHg 77%
    06:00 +6°C° 0 mm 4 mps 757 mmHg 74%
    07:00 +7°C° 0 mm 5 mps 758 mmHg 70%
    08:00 +9°C° 0 mm 5 mps 758 mmHg 60%
    09:00 +11°C° 0 mm 6 mps 759 mmHg 49%
    10:00 +13°C° 0 mm 6 mps 759 mmHg 39%
    11:00 +14°C° 0 mm 6 mps 759 mmHg 37%
    12:00 +15°C° 0 mm 6 mps 759 mmHg 35%
    13:00 +15°C° 0 mm 6 mps 759 mmHg 33%
    14:00 +15°C° 0 mm 6 mps 759 mmHg 35%
    15:00 +15°C° 0 mm 6 mps 759 mmHg 36%
    16:00 +14°C° 0 mm 6 mps 759 mmHg 38%
    17:00 +13°C° 0 mm 5 mps 759 mmHg 43%
    18:00 +11°C° 0 mm 4 mps 759 mmHg 49%
    19:00 +9°C° 0 mm 3 mps 759 mmHg 55%
    20:00 +8°C° 0 mm 3 mps 760 mmHg 58%
    21:00 +8°C° 0 mm 2 mps 760 mmHg 60%
    22:00 +7°C° 0 mm 2 mps 760 mmHg 63%
    23:00 +7°C° 0 mm 1 mps 760 mmHg 65%
    Show more